Weather History for Land O' Lakes, WI

Change the Weather History Date:

Wednesday, April 17, 2013

  Actual Average (KEGV) Record (KEGV)
Temperature  
Mean Temperature 31 °F -  
Max Temperature 41 °F 38 °F 71 °F (2002)
Min Temperature 21 °F 24 °F 13 °F (1993)
Degree Days  
Heating Degree Days 34    
Moisture  
Dew Point 26 °F    
Average Humidity 78    
Maximum Humidity 100    
Minimum Humidity 57    
Precipitation  
Precipitation 0.00 in - - ()
Sea Level Pressure  
Sea Level Pressure 30.23 in    
Wind  
Wind Speed 4 mph (East)    
Max Wind Speed 10 mph    
Max Gust Speed 17 mph    
Visibility 10 miles    
Events      
Averages and records for this station are not official NWS values.
T = Trace of Precipitation, MM = Missing Value Source: NWS Daily Summary

Daily Weather History Graph

Daily Weather History Graph

Search for Another Location

Airport:

Trip Planner

Search our weather history database for the weather conditions in past years. The results will help you decide how hot, cold, wet, or windy it might be!

Date:

Astronomy

Apr. 17, 2013 Rise Set
Actual Time 6:06 AM CDT 7:47 PM CDT
Civil Twilight 5:34 AM CDT 8:18 PM CDT
Nautical Twilight 4:56 AM CDT 8:57 PM CDT
Astronomical Twilight 4:14 AM CDT 9:39 PM CDT
Moon 11:13 AM CDT 1:31 AM CDT
Length of Visible Light 14h 44m
Length of Day
13h 40m
Waxing Crescent, 42% of the Moon is Illuminated
Apr 17
Waxing Crescent
Apr 18
First Quarter
Apr 25
Full
May 2
Last Quarter
May 9
New

Hourly Weather History & Observations

Time (CDT) Temp. Windchill Dew Point Humidity Pressure Visibility Wind Dir Wind Speed Gust Speed Precip Events Conditions
12:15 AM 28.4 °F 24.6 °F 24.8 °F 86% 30.35 in 10.0 mi NNE 3.5 mph - N/A   Clear
12:35 AM 30.2 °F 26.7 °F 24.8 °F 80% 30.35 in 10.0 mi NNE 3.5 mph - N/A   Clear
12:55 AM 30.2 °F 26.7 °F 24.8 °F 80% 30.35 in 10.0 mi NE 3.5 mph - N/A   Clear
1:15 AM 30.2 °F - 24.8 °F 80% 30.35 in 10.0 mi Calm Calm - N/A   Clear
1:35 AM 28.4 °F - 24.8 °F 86% 30.35 in 10.0 mi Calm Calm - N/A   Clear
1:55 AM 28.4 °F - 24.8 °F 86% 30.35 in 10.0 mi Calm Calm - N/A   Clear
2:15 AM 26.6 °F - 23.0 °F 86% 30.35 in 10.0 mi Calm Calm - N/A   Clear
2:35 AM 23.0 °F - 23.0 °F 100% 30.35 in 10.0 mi Calm Calm - N/A   Clear
2:55 AM 23.0 °F - 21.2 °F 93% 30.35 in 10.0 mi Calm Calm - N/A   Scattered Clouds
3:15 AM 23.0 °F - 21.2 °F 93% 30.35 in 10.0 mi Calm Calm - N/A   Mostly Cloudy
3:35 AM 23.0 °F - 21.2 °F 93% 30.35 in 10.0 mi Calm Calm - N/A   Scattered Clouds
3:55 AM 21.2 °F - 21.2 °F 100% 30.35 in 10.0 mi Calm Calm - N/A   Clear
4:15 AM 21.2 °F - 21.2 °F 100% 30.36 in 10.0 mi Calm Calm - N/A   Clear
4:35 AM 21.2 °F - 21.2 °F 100% 30.36 in 10.0 mi Calm Calm - N/A   Clear
4:55 AM 21.2 °F - 19.4 °F 93% 30.37 in 10.0 mi Calm Calm - N/A   Mostly Cloudy
5:15 AM 23.0 °F - 21.2 °F 93% 30.37 in 10.0 mi Calm Calm - N/A   Overcast
5:35 AM 23.0 °F 17.0 °F 21.2 °F 93% 30.36 in 10.0 mi NNE 4.6 mph - N/A   Overcast
5:55 AM 26.6 °F 22.6 °F 26.6 °F 100% 30.35 in 10.0 mi NE 3.5 mph - N/A   Mostly Cloudy
6:15 AM 28.4 °F - 26.6 °F 93% 30.35 in 10.0 mi Calm Calm - N/A   Scattered Clouds
6:35 AM 26.6 °F - 26.6 °F 100% 30.34 in 10.0 mi Calm Calm - N/A   Clear
6:55 AM 26.6 °F - 23.0 °F 86% 30.34 in 7.0 mi Calm Calm - N/A   Clear
7:15 AM 28.4 °F - 26.6 °F 93% 30.33 in 10.0 mi Calm Calm - N/A   Clear
7:35 AM 28.4 °F 23.3 °F 26.6 °F 93% 30.33 in 10.0 mi ENE 4.6 mph - N/A   Clear
7:55 AM 32.0 °F 24.8 °F 28.4 °F 87% 30.34 in 10.0 mi East 8.1 mph - N/A   Scattered Clouds
8:15 AM 32.0 °F 24.8 °F 26.6 °F 80% 30.35 in 10.0 mi ESE 8.1 mph - N/A   Clear
8:35 AM 32.0 °F 24.8 °F 26.6 °F 80% 30.36 in 10.0 mi East 8.1 mph - N/A   Scattered Clouds
9:15 AM 32.0 °F 25.6 °F 26.6 °F 80% 30.34 in 10.0 mi East 6.9 mph - N/A   Overcast
9:35 AM 32.0 °F 23.6 °F 28.4 °F 87% 30.31 in 10.0 mi East 10.4 mph - N/A   Overcast
9:55 AM 33.8 °F 27.7 °F 26.6 °F 75% 30.31 in 10.0 mi ESE 6.9 mph - N/A   Overcast
10:15 AM 33.8 °F 27.7 °F 28.4 °F 81% 30.31 in 10.0 mi ESE 6.9 mph - N/A   Overcast
10:35 AM 35.6 °F 28.6 °F 26.6 °F 70% 30.31 in 10.0 mi ESE 9.2 mph - N/A   Overcast
10:55 AM 35.6 °F 29.2 °F 26.6 °F 70% 30.30 in 10.0 mi SSE 8.1 mph - N/A   Overcast
11:15 AM 35.6 °F 32.8 °F 26.6 °F 70% 30.29 in 10.0 mi SE 3.5 mph - N/A   Scattered Clouds
11:35 AM 37.4 °F 31.4 °F 26.6 °F 65% 30.29 in 10.0 mi SE 8.1 mph - N/A   Scattered Clouds
12:15 PM 37.4 °F 32.1 °F 26.6 °F 65% 30.27 in 10.0 mi East 6.9 mph - N/A   Scattered Clouds
12:35 PM 37.4 °F 32.1 °F 26.6 °F 65% 30.27 in 10.0 mi East 6.9 mph - N/A   Mostly Cloudy
12:55 PM 37.4 °F 32.1 °F 26.6 °F 65% 30.25 in 10.0 mi East 6.9 mph - N/A   Overcast
1:15 PM 37.4 °F 32.8 °F 26.6 °F 65% 30.24 in 10.0 mi East 5.8 mph - N/A   Overcast
1:35 PM 37.4 °F 33.8 °F 26.6 °F 65% 30.25 in 10.0 mi ESE 4.6 mph - N/A   Overcast
1:55 PM 37.4 °F - 26.6 °F 65% 30.26 in 10.0 mi Calm Calm - N/A   Overcast
2:15 PM 37.4 °F - 26.6 °F 65% 30.26 in 10.0 mi Calm Calm - N/A   Overcast
2:35 PM 37.4 °F 34.9 °F 26.6 °F 65% 30.25 in 10.0 mi ESE 3.5 mph - N/A   Overcast
2:55 PM 37.4 °F 32.8 °F 26.6 °F 65% 30.22 in 10.0 mi East 5.8 mph - N/A   Overcast
3:35 PM 37.4 °F 31.4 °F 28.4 °F 70% 30.19 in 10.0 mi ESE 8.1 mph - N/A   Overcast
3:55 PM 39.2 °F 33.0 °F 28.4 °F 65% 30.16 in 10.0 mi ESE 9.2 mph - N/A   Overcast
4:15 PM 39.2 °F 32.5 °F 28.4 °F 65% 30.14 in 10.0 mi East 10.4 mph 17.3 mph N/A   Overcast
4:35 PM 39.2 °F 32.5 °F 28.4 °F 65% 30.13 in 10.0 mi East 10.4 mph 17.3 mph N/A   Overcast
4:55 PM 41.0 °F 35.2 °F 28.4 °F 61% 30.13 in 10.0 mi East 9.2 mph - N/A   Overcast
5:15 PM 41.0 °F 34.7 °F 26.6 °F 57% 30.13 in 10.0 mi East 10.4 mph 17.3 mph N/A   Overcast
5:35 PM 39.2 °F 33.6 °F 26.6 °F 61% 30.13 in 10.0 mi ESE 8.1 mph - N/A   Overcast
5:55 PM 39.2 °F 33.6 °F 26.6 °F 61% 30.13 in 10.0 mi ESE 8.1 mph - N/A   Overcast
6:15 PM 37.4 °F 32.8 °F 26.6 °F 65% 30.12 in 10.0 mi ESE 5.8 mph - N/A   Overcast
6:35 PM 37.4 °F 30.3 °F 26.6 °F 65% 30.11 in 10.0 mi ESE 10.4 mph - N/A   Overcast
6:55 PM 37.4 °F 30.8 °F 26.6 °F 65% 30.09 in 10.0 mi East 9.2 mph - N/A   Overcast
7:15 PM 37.4 °F 31.4 °F 26.6 °F 65% 30.07 in 10.0 mi East 8.1 mph - N/A   Overcast
7:35 PM 37.4 °F 30.3 °F 28.4 °F 70% 30.06 in 10.0 mi East 10.4 mph 16.1 mph N/A   Overcast
7:55 PM 37.4 °F 32.1 °F 28.4 °F 70% 30.07 in 10.0 mi ESE 6.9 mph - N/A   Overcast
8:15 PM 37.4 °F 32.1 °F 28.4 °F 70% 30.08 in 10.0 mi ESE 6.9 mph - N/A   Overcast
8:35 PM 37.4 °F 33.8 °F 28.4 °F 70% 30.07 in 10.0 mi East 4.6 mph - N/A   Overcast
8:55 PM 37.4 °F 33.8 °F 28.4 °F 70% 30.07 in 10.0 mi East 4.6 mph - N/A   Overcast
9:15 PM 35.6 °F 31.7 °F 28.4 °F 75% 30.06 in 10.0 mi East 4.6 mph - N/A   Overcast
9:55 PM 35.6 °F 29.9 °F 30.2 °F 81% 30.03 in 10.0 mi East 6.9 mph - N/A   Overcast
10:15 PM 35.6 °F 31.7 °F 30.2 °F 81% 30.02 in 10.0 mi ENE 4.6 mph - N/A   Overcast
10:35 PM 35.6 °F 31.7 °F 28.4 °F 75% 30.03 in 10.0 mi ENE 4.6 mph - N/A   Overcast
10:55 PM 35.6 °F - 30.2 °F 81% 30.03 in 7.0 mi Calm Calm - N/A   Drizzle
11:15 PM 33.8 °F 27.7 °F 32.0 °F 93% 30.01 in 5.0 mi ENE 6.9 mph - N/A   Overcast
11:35 PM 33.8 °F 29.6 °F 32.0 °F 93% 30.00 in 5.0 mi ENE 4.6 mph - N/A   Overcast
11:55 PM 33.8 °F 30.8 °F 32.0 °F 93% 30.00 in 4.0 mi NE 3.5 mph - N/A   Overcast